This is the latest recevied weather packets stored in our database for station/object OE3TEC-15. If no packets are shown the sender has not sent any weather packets the latest 10 day(s).
| Time | Temp. | Humidity | Pressure | Rain* | Wind** | Luminosity | Snow |
|---|---|---|---|---|---|---|---|
| 1777785243 | 10.56° C | 65% | 1019.8 hPa | 0 mm | - | 104 W/m² | - |
| 1777784636 | 10° C | 66% | 1019.8 hPa | 0 mm | - | 85 W/m² | - |
| 1777784028 | 8.89° C | 70% | 1019.7 hPa | 0 mm | - | 69 W/m² | - |
| 1777783421 | 7.78° C | 71% | 1019.8 hPa | 0 mm | - | 54 W/m² | - |
| 1777782815 | 6.67° C | 77% | 1019.6 hPa | 0 mm | - | 41 W/m² | - |
| 1777782207 | 5° C | 81% | 1019.7 hPa | 0 mm | - | 23 W/m² | - |
| 1777781600 | 4.44° C | 83% | 1019.8 hPa | 0 mm | - | 18 W/m² | - |
| 1777780992 | 3.33° C | 84% | 1019.6 hPa | 0 mm | - | 14 W/m² | - |
| 1777780386 | 3.33° C | 83% | 1019.7 hPa | 0 mm | - | 10 W/m² | - |
| 1777779779 | 3.89° C | 82% | 1019.7 hPa | 0 mm | - | 6 W/m² | - |
| 1777779171 | 4.44° C | 83% | 1019.6 hPa | 0 mm | - | 3 W/m² | - |
| 1777778563 | 4.44° C | 83% | 1019.5 hPa | 0 mm | - | 1 W/m² | - |
| 1777777956 | 4.44° C | 80% | 1019.5 hPa | 0 mm | - | 0 W/m² | - |
| 1777777348 | 6.11° C | 76% | 1019.4 hPa | 0 mm | - | 0 W/m² | - |
| 1777776743 | 5° C | 80% | 1019.5 hPa | 0 mm | - | 0 W/m² | - |
| 1777776136 | 5° C | 79% | 1019.4 hPa | 0 mm | - | 0 W/m² | - |
| 1777775528 | 5° C | 82% | 1019.5 hPa | 0 mm | - | 0 W/m² | - |
| 1777774920 | 4.44° C | 83% | 1019.4 hPa | 0 mm | - | 0 W/m² | - |
| 1777774314 | 3.33° C | 86% | 1019.4 hPa | 0 mm | - | 0 W/m² | - |
| 1777773714 | 2.78° C | 86% | 1019.4 hPa | 0 mm | - | 0 W/m² | - |
| 1777773107 | 3.33° C | 85% | 1019.4 hPa | 0 mm | - | 0 W/m² | - |
| 1777772500 | 3.33° C | 85% | 1019.5 hPa | 0 mm | - | 0 W/m² | - |
| 1777771894 | 3.89° C | 83% | 1019.4 hPa | 0 mm | - | 0 W/m² | - |
| 1777771287 | 3.89° C | 82% | 1019.3 hPa | 0 mm | - | 0 W/m² | - |
| 1777770679 | 5° C | 81% | 1019.5 hPa | 0 mm | - | 0 W/m² | - |
* Rain latest hour (hover to see other rain measurements)
** Current wind speed in m/s (hover to see current wind gust speed)